Showing default

GEO-KOMPSAT-2B, 45246

Orbit data source: Space-Track

GEO-KOMPSAT-2B, 45246 is a payload satellite owned by KARI (KR) in GEO that was launched on Tue, 18 Feb 2020 UTC via an ARIANE 5ECA+ launch vehicle from the French Guiana (FRGUI). Payload-class satellites include a variety of spacecraft equipped with specific instruments for various scientific and technological missions. These include communications satellites like Starlink; space stations such as the ISS; scientific satellites like the Hubble; Earth observation satellites from companies like Planet Labs, Umbra, and HawkEye 360; GPS; miniature CubeSats for education and research; and military/defense satellites.

Not visible in the next 10 days
Identifier
45246, 2020-013B
Orbit
GEO
Country
Flag of UnknownUnknown / SKOR
Related business
Manufacturer
KARI
Mission
Operational Civil Weather
Bus & Motor
GK2, S400?
Mass
3,379 kg wet, ~2,500 kg dry
Launch date (UTC)
2020-02-18 (6 years ago)
Launch vehicle
ARIANE 5ECA+
Launch site
French Guiana (FRGUI)
Object type
Payload
Rocket body
Debris
Shape & HBR
Box + 1 Pan, Unknown HBR
Radar Cross Section
15.287 m², Large (>1 m²)

Expand to show TLE details & history
Last TLE update: 12 hours ago

TLE from 12 hours ago
0 GEO-KOMPSAT-2B
1 45246U 20013B   25307.68771786 -.00000331  00000-0  00000+0 0  9991
2 45246   0.0178 287.0879 0002429 326.0114 165.9645  1.00271068 21019
Epoch: 2025-11-03T16:30Z
TLE epoch observation values (Epoch: 2025-11-03T16:30:18.823Z)
Latitude
0.02082°
Longitude
128.26665°
Altitude
35,796.244 km
Speed
3.074 km/s
True Right ascension
03h 56m 07s
True Declination
0° 01' 15"
Sunlit
Object was in daylight at epoch
Visualization orbit readout
Latitude
Unknown
Longitude
Unknown
Altitude
Unknown
Speed
Unknown
Apparent Right ascension
Unknown
Apparent Declination
Unknown
Sunlit
N/A
Visualization observer readout
Local Sidereal Time
00:02:42
Azimuth
Unknown
Elevation
Unknown
Doppler factor
Unknown
Orbital elements
Apogee altitude
35,798.108 km
Perigee altitude
35,777.624 km
Semi-major axis
42,166.003 km
Eccentricity
0.00024
Inclination
0.0178°
RAAN
287.0879°
Arg. of periapsis
326.0114°
True anomaly
165.97125°
Mean anomaly
165.9645°
Eccentric anomaly
165.96787°
Mean motion
0.25067 °/min
Orbital period
1,436.16 mins
BSTAR
0
Loading maneuver chart data...
Computing Atmospheric mass density...
Loading historical data...
Loading historical data...
Loading historical data...
Loading historical data...
Loading historical data...
Loading historical data...
Loading historical data...
Other satellites on launch #13 in the year 2020 (2020-02-18 UTC)

Documentation

Showing up to 5 results
|